This is the latest recevied weather packets stored in our database for station/object SQ5JP-4. If no packets are shown the sender has not sent any weather packets the latest 10 day(s).
| Time | Temp. | Humidity | Pressure | Rain* | Wind** | Luminosity | Snow |
|---|---|---|---|---|---|---|---|
| 1788370438 | 15.56° C | 100% | 1000.6 hPa | - | - | - | - |
| 1788369538 | 16.11° C | 100% | 1000.5 hPa | - | - | - | - |
| 1788368637 | 16.67° C | 100% | 1000.4 hPa | - | - | - | - |
| 1788367738 | 18.33° C | 100% | 1000.6 hPa | - | - | - | - |
| 1788366837 | 20° C | 100% | 1000.5 hPa | - | - | - | - |
| 1788365937 | 21.11° C | 100% | 1000.5 hPa | - | - | - | - |
| 1788365037 | 21.11° C | 100% | 1000.5 hPa | - | - | - | - |
| 1788364137 | 20.56° C | 100% | 1000.5 hPa | - | - | - | - |
| 1788362337 | 21.67° C | 100% | 1000.7 hPa | - | - | - | - |
| 1788361437 | 21.67° C | 100% | 1000.7 hPa | - | - | - | - |
| 1788360537 | 21.11° C | 100% | 1000.9 hPa | - | - | - | - |
| 1788359637 | 24.44° C | 100% | 1000.9 hPa | - | - | - | - |
| 1788356936 | 25° C | 97% | 1000.9 hPa | - | - | - | - |
| 1788356036 | 21.67° C | 100% | 1000.9 hPa | - | - | - | - |
| 1788354238 | 23.89° C | 98% | 1001 hPa | - | - | - | - |
| 1788353339 | 24.44° C | 100% | 1001 hPa | - | - | - | - |
| 1788352438 | 24.44° C | 100% | 1001 hPa | - | - | - | - |
| 1788351538 | 24.44° C | 100% | 1001.2 hPa | - | - | - | - |
| 1788350638 | 22.78° C | 100% | 1001.3 hPa | - | - | - | - |
| 1788348838 | 21.67° C | 100% | 1001.6 hPa | - | - | - | - |
| 1788347938 | 22.78° C | 100% | 1001.5 hPa | - | - | - | - |
| 1788347038 | 22.78° C | 100% | 1001.7 hPa | - | - | - | - |
| 1788346138 | 22.78° C | 100% | 1001.7 hPa | - | - | - | - |
| 1788345238 | 22.78° C | 100% | 1001.8 hPa | - | - | - | - |
| 1788344338 | 20.56° C | 100% | 1001.7 hPa | - | - | - | - |
* Rain since midnight (hover to see other rain measurements)
** Current wind speed in m/s (hover to see current wind gust speed)